Weather History for New York JFK, NY

Change the Weather History Date:

Wednesday, October 3, 2012

  Actual Average Record
Temperature  
Mean Temperature 70 °F 62 °F  
Max Temperature 74 °F 69 °F 84 °F (2002)
Min Temperature 65 °F 54 °F 40 °F (1974)
Degree Days  
Heating Degree Days 0 5  
Month to date heating degree days 2 13  
Since 1 July heating degree days 13 52  
Cooling Degree Days 5 1  
Month to date cooling degree days 7 3  
Year to date cooling degree days 1219 994  
Growing Degree Days 18 (Base 50)    
Moisture  
Dew Point 67 °F    
Average Humidity 92    
Maximum Humidity 100    
Minimum Humidity 84    
Precipitation  
Precipitation T in 0.12 in 1.80 in (2009)
Month to date precipitation 0.33 0.36  
Year to date precipitation 31.46 32.82  
Snow  
Snow 0.00 in 0.00 in - ()
Month to date snowfall 0.0 0.0  
Since 1 July snowfall 0.0 0.0  
Snow Depth 0.00 in    
Sea Level Pressure  
Sea Level Pressure 30.06 in    
Wind  
Wind Speed 4 mph (ENE)    
Max Wind Speed 9 mph    
Max Gust Speed 22 mph    
Visibility 2 miles    
Events Fog    
T = Trace of Precipitation, MM = Missing Value Source: NWS Daily Summary

Daily Weather History Graph

Daily Weather History Graph

Search for Another Location

Airport:

Trip Planner

Search our weather history database for the weather conditions in past years. The results will help you decide how hot, cold, wet, or windy it might be!

Date:

Astronomy

Oct. 03, 2012 Rise Set
Actual Time 6:54 AM EDT 6:33 PM EDT
Civil Twilight 6:26 AM EDT 7:00 PM EDT
Nautical Twilight 5:55 AM EDT 7:31 PM EDT
Astronomical Twilight 5:23 AM EDT 8:03 PM EDT
Moon 8:22 PM EDT (10/3) 10:16 AM EDT (10/3)
Length of Visible Light 12h 33m
Length of Day
11h 39m
Waning Gibbous, 89% of the Moon is Illuminated
Oct 3
Waning Gibbous
Oct 8
Last Quarter
Oct 15
New
Oct 21
First Quarter
Oct 29
Full

Hourly Weather History & Observations

Time (EDT) Temp. Dew Point Humidity Pressure Visibility Wind Dir Wind Speed Gust Speed Precip Events Conditions
12:51 AM 66.0 °F 64.9 °F 96% 29.99 in 0.8 mi North 6.9 mph - N/A   Overcast
1:51 AM 66.0 °F 64.9 °F 96% 29.99 in 0.5 mi North 6.9 mph - 0.00 in   Mist
2:51 AM 66.0 °F 64.9 °F 96% 29.99 in 0.5 mi NNE 5.8 mph - N/A   Overcast
3:51 AM 64.9 °F 64.9 °F 100% 30.00 in 0.5 mi North 4.6 mph - N/A   Overcast
4:10 AM 64.4 °F 64.4 °F 100% 30.01 in 0.5 mi North 5.8 mph - N/A Fog Fog
4:48 AM 64.4 °F 64.4 °F 100% 30.00 in 0.2 mi NNW 4.6 mph - N/A Fog Fog
4:51 AM 64.9 °F 64.0 °F 97% 30.01 in 0.2 mi North 5.8 mph - N/A Fog Fog
5:33 AM 64.4 °F 64.4 °F 100% 30.01 in 0.0 mi NE 3.5 mph - N/A Fog Fog
5:51 AM 64.9 °F 64.9 °F 100% 30.01 in 0.0 mi NE 5.8 mph - 0.00 in   Light Drizzle
6:51 AM 66.0 °F 64.9 °F 96% 30.04 in 0.0 mi North 3.5 mph - 0.00 in   Overcast
7:51 AM 66.0 °F 64.9 °F 96% 30.06 in 0.5 mi NNE 6.9 mph - N/A   Overcast
8:44 AM 66.2 °F 66.2 °F 100% 30.06 in 2.0 mi East 3.5 mph - N/A   Overcast
8:51 AM 66.9 °F 64.9 °F 93% 30.07 in 2.0 mi Variable 4.6 mph - N/A   Overcast
9:51 AM 69.1 °F 66.9 °F 93% 30.06 in 2.0 mi NE 5.8 mph - N/A   Overcast
10:37 AM 69.8 °F 66.2 °F 88% 30.08 in 3.0 mi Calm Calm - N/A   Overcast
10:51 AM 71.1 °F 66.9 °F 87% 30.08 in 3.0 mi Calm Calm - N/A   Overcast
11:51 AM 72.0 °F 68.0 °F 87% 30.08 in 6.0 mi NE 4.6 mph - N/A   Overcast
12:51 PM 73.0 °F 69.1 °F 87% 30.07 in 4.0 mi South 6.9 mph - N/A   Overcast
1:12 PM 73.4 °F 68.0 °F 83% 30.06 in 4.0 mi South 4.6 mph - N/A   Haze
1:26 PM 73.4 °F 69.8 °F 88% 30.06 in 5.0 mi South 5.8 mph - N/A   Overcast
1:51 PM 73.0 °F 68.0 °F 84% 30.07 in 5.0 mi South 6.9 mph - N/A   Haze
2:30 PM 71.6 °F 68.0 °F 88% 30.07 in 5.0 mi SSE 5.8 mph - N/A   Overcast
2:51 PM 71.1 °F 68.0 °F 90% 30.06 in 5.0 mi South 5.8 mph - N/A   Overcast
3:51 PM 71.1 °F 68.0 °F 90% 30.07 in 5.0 mi South 4.6 mph - N/A   Overcast
4:08 PM 71.6 °F 68.0 °F 88% 30.07 in 2.0 mi South 3.5 mph - N/A   Overcast
4:46 PM 69.8 °F 68.0 °F 94% 30.07 in 1.0 mi Calm Calm - N/A   Overcast
4:51 PM 70.0 °F 68.0 °F 93% 30.08 in 1.0 mi SE 3.5 mph - N/A   Overcast
5:08 PM 69.8 °F 68.0 °F 94% 30.08 in 1.0 mi Calm Calm - N/A   Overcast
5:51 PM 70.0 °F 68.0 °F 93% 30.08 in 1.0 mi ESE 3.5 mph - N/A   Overcast
6:51 PM 70.0 °F 68.0 °F 93% 30.08 in 1.0 mi East 5.8 mph - N/A   Overcast
7:51 PM 70.0 °F 68.0 °F 93% 30.09 in 1.0 mi East 3.5 mph - N/A   Overcast
8:51 PM 70.0 °F 68.0 °F 93% 30.11 in 1.0 mi Calm Calm - N/A   Overcast
9:11 PM 69.8 °F 68.0 °F 94% 30.11 in 1.0 mi Calm Calm - N/A   Overcast
9:45 PM 69.8 °F 68.0 °F 94% 30.12 in 1.0 mi SSE 3.5 mph - N/A   Overcast
9:51 PM 69.1 °F 68.0 °F 96% 30.12 in 1.0 mi Calm Calm - N/A   Overcast
10:51 PM 69.1 °F 68.0 °F 96% 30.13 in 1.0 mi Calm Calm - N/A   Mist
10:57 PM 69.8 °F 68.0 °F 94% 30.12 in 0.5 mi Calm Calm - N/A Fog Fog
11:17 PM 69.8 °F 68.0 °F 94% 30.12 in 0.5 mi Calm Calm - N/A Fog Fog
11:34 PM 69.8 °F 68.0 °F 94% 30.12 in 0.5 mi Calm Calm - N/A Fog Fog
11:51 PM 69.1 °F 68.0 °F 96% 30.13 in 0.0 mi Calm Calm - N/A Fog Fog